TimeCDT,TemperatureF,Dew PointF,Humidity,Sea Level PressureIn,VisibilityMPH,Wind Direction,Wind SpeedMPH,Gust SpeedMPH,PrecipitationIn,Events,Conditions,WindDirDegrees,DateUTC
12:53 AM,72.0,66.0,81,30.04,10.0,SSE,10.4,-,N/A,,Partly Cloudy,160,2013-08-24 05:53:00
1:53 AM,71.1,66.0,84,30.04,10.0,SSE,9.2,-,N/A,,Clear,160,2013-08-24 06:53:00
2:53 AM,71.1,66.0,84,30.05,10.0,SSE,9.2,-,N/A,,Partly Cloudy,150,2013-08-24 07:53:00
3:53 AM,71.1,66.0,84,30.05,10.0,SSE,10.4,-,N/A,,Clear,160,2013-08-24 08:53:00
4:53 AM,69.1,66.0,90,30.05,10.0,SSE,6.9,-,N/A,,Mostly Cloudy,160,2013-08-24 09:53:00
5:53 AM,70.0,66.0,87,30.04,10.0,SSE,11.5,-,N/A,,Partly Cloudy,150,2013-08-24 10:53:00
6:53 AM,70.0,66.0,87,30.05,10.0,SSE,9.2,-,N/A,,Clear,150,2013-08-24 11:53:00
7:53 AM,72.0,66.0,81,30.04,10.0,SSE,12.7,-,N/A,,Scattered Clouds,150,2013-08-24 12:53:00
8:53 AM,75.9,66.9,74,30.03,10.0,SSE,16.1,23.0,N/A,,Mostly Cloudy,150,2013-08-24 13:53:00
9:53 AM,79.0,66.9,66,30.01,10.0,South,17.3,23.0,N/A,,Clear,170,2013-08-24 14:53:00
10:53 AM,80.1,68.0,67,30.00,10.0,South,11.5,21.9,N/A,,Partly Cloudy,170,2013-08-24 15:53:00
11:53 AM,84.0,68.0,58,29.98,10.0,South,21.9,31.1,N/A,,Clear,170,2013-08-24 16:53:00
12:53 PM,84.9,69.1,59,29.97,10.0,South,16.1,25.3,N/A,,Partly Cloudy,170,2013-08-24 17:53:00
1:53 PM,86.0,69.1,57,29.97,10.0,South,20.7,29.9,N/A,,Partly Cloudy,180,2013-08-24 18:53:00
2:53 PM,90.0,66.9,46,29.94,10.0,South,21.9,29.9,N/A,,Clear,170,2013-08-24 19:53:00
3:53 PM,90.0,66.9,46,29.92,10.0,South,23.0,29.9,N/A,,Clear,170,2013-08-24 20:53:00
4:53 PM,88.0,68.0,51,29.90,10.0,South,20.7,33.4,N/A,,Clear,180,2013-08-24 21:53:00
5:53 PM,86.0,68.0,55,29.90,10.0,South,20.7,31.1,N/A,,Clear,170,2013-08-24 22:53:00
6:53 PM,82.9,69.1,63,29.90,10.0,South,21.9,31.1,N/A,,Clear,170,2013-08-24 23:53:00
7:53 PM,82.0,70.0,67,29.90,10.0,South,16.1,21.9,N/A,,Clear,180,2013-08-25 00:53:00
8:53 PM,80.1,71.1,74,29.91,10.0,South,16.1,21.9,N/A,,Clear,180,2013-08-25 01:53:00
9:53 PM,79.0,72.0,79,29.91,10.0,South,15.0,-,N/A,,Clear,180,2013-08-25 02:53:00
10:53 PM,79.0,72.0,79,29.92,10.0,South,17.3,-,N/A,,Clear,180,2013-08-25 03:53:00
11:53 PM,79.0,71.1,77,29.93,10.0,South,13.8,-,N/A,,Clear,190,2013-08-25 04:53:00